Location: ?????????
(38.5999°N, 22.7695°E)
Time: 15:38:18
(UTC+00:00)

Cosmos 2360 Rocket - Pass Details

Date: 23 May 2024
Orbit: 832 x 846 km, 71.0° (Epoch: 24 June)

Event Time Altitude Azimuth Distance (km) Brightness Sun altitude
Rises 00:17:22 0° 346° (NNW) 3,412 6.0 -25.2°
Reaches altitude 10° 00:20:06 10° 356° (N) 2,474 5.4 -25.0°
Maximum altitude 00:25:08 32° 59° (ENE) 1,430 3.9 -24.5°
Drops below altitude 10° 00:30:07 10° 121° (ESE) 2,461 4.6 -24.0°
Sets 00:32:49 0° 131° (SE) 3,391 5.3 -23.7°
